User: anonymous   Login
Location: Bois de la Silve
(44.4667°N, 6.7833°E)
Time: 08:23:34
(UTC+00:00)
Language:

Cosmos 405 Rocket - Orbit

View from above orbital plane
View from above orbital plane
View from above satellite
View from above satellite

Ground track
Ground track

The orbit data is extracted from the following two-line orbital elements,

1  5118U 71028B   20272.92550076 +.00001158 +00000-0 +59612-4 0  9992
2  5118 081.2568 217.4739 0045995 215.4027 144.4147 15.14671123685480
Epoch (UTC): 28 September 2020 22:12:43
Eccentricity: 0.0045995
inclination: 81.2568°
perigee height: 490 km
apogee height: 554 km
right ascension of ascending node: 217.4739°
argument of perigee: 215.4027°
revolutions per day: 15.14671123
mean anomaly at epoch: 144.4147°
orbit number at epoch: 68548

The dashed part of the orbit path shows where the satellite is in the earth's shadow,  

DLR